CSN186 ZSOF-RCSS

Flight info

Callsign CSN186
Flight time 1h 37m
Altitude 33100
Route MADUK R343 UPLEL W95 SAPIN V143 DST R596 BERBA B576 FITCH B591 BAKER
Aircraft B753/M-VGDW/C

Departure

Time 2026-04-28 13:39
Airport Hefei Xinqiao International Airport (ZSOF)

Arrival

Time 2026-04-28 15:17
Airport Taipei Songshan International Airport (RCSS)
Time Latitude Longitude Altitude Speed Heading
2026-04-28 13:34 31.99141 116.96743 219 ft 0 kts 96°
2026-04-28 13:35 31.99140 116.96752 219 ft 3 kts 94°
2026-04-28 13:35 31.99136 116.96799 219 ft 8 kts 98°
2026-04-28 13:35 31.99131 116.96886 219 ft 13 kts 84°
2026-04-28 13:36 31.99147 116.97015 219 ft 17 kts 83°
2026-04-28 13:36 31.99213 116.97072 219 ft 14 kts 336°
2026-04-28 13:36 31.99325 116.97002 219 ft 22 kts 329°
2026-04-28 13:36 31.99479 116.96896 219 ft 28 kts 329°
2026-04-28 13:37 31.99660 116.96773 219 ft 32 kts 332°
2026-04-28 13:37 31.99871 116.96634 219 ft 35 kts 332°
2026-04-28 13:37 32.00034 116.96533 219 ft 20 kts
2026-04-28 13:37 32.00094 116.96620 219 ft 13 kts 63°
2026-04-28 13:38 32.00136 116.96710 219 ft 11 kts 69°
2026-04-28 13:38 32.00113 116.96789 219 ft 13 kts 143°
2026-04-28 13:38 31.99897 116.96939 219 ft 62 kts 149°
2026-04-28 13:38 31.99359 116.97308 220 ft 115 kts 150°
2026-04-28 13:39 31.98520 116.97870 222 ft 161 kts 149°
2026-04-28 13:39 31.97516 116.98517 617 ft 168 kts 150°
2026-04-28 13:39 31.96459 116.99191 1030 ft 177 kts 150°
2026-04-28 13:39 31.95424 116.99929 1625 ft 174 kts 148°
2026-04-28 13:40 31.94391 117.00687 1950 ft 182 kts 146°
2026-04-28 13:40 31.93254 117.01545 2009 ft 203 kts 146°
2026-04-28 13:40 31.92030 117.02480 2175 ft 221 kts 146°
2026-04-28 13:40 31.90719 117.03487 2650 ft 231 kts 146°
2026-04-28 13:41 31.89287 117.04497 3025 ft 248 kts 153°
2026-04-28 13:41 31.87761 117.05376 3807 ft 247 kts 152°
2026-04-28 13:41 31.86201 117.06329 4280 ft 261 kts 151°
2026-04-28 13:41 31.84605 117.07356 4905 ft 267 kts 150°
2026-04-28 13:42 31.83001 117.08410 5702 ft 268 kts 150°
2026-04-28 13:42 31.81370 117.09495 6402 ft 271 kts 149°
2026-04-28 13:42 31.79744 117.10582 7144 ft 273 kts 149°
2026-04-28 13:42 31.78074 117.11703 7800 ft 278 kts 149°
2026-04-28 13:43 31.76411 117.12822 8501 ft 280 kts 149°
2026-04-28 13:43 31.74909 117.14278 9192 ft 281 kts 126°
2026-04-28 13:43 31.74112 117.16336 9810 ft 284 kts 99°
2026-04-28 13:43 31.74181 117.18626 10448 ft 287 kts 75°
2026-04-28 13:44 31.74797 117.20943 10687 ft 307 kts 71°
2026-04-28 13:44 31.75513 117.23411 10763 ft 333 kts 71°
2026-04-28 13:44 31.76295 117.26075 10892 ft 356 kts 71°
2026-04-28 13:44 31.77064 117.28841 11720 ft 357 kts 76°
2026-04-28 13:45 31.77342 117.31738 12431 ft 362 kts 91°
2026-04-28 13:45 31.77174 117.34688 13218 ft 364 kts 94°
2026-04-28 13:45 31.76981 117.37641 13979 ft 367 kts 94°
2026-04-28 13:45 31.76779 117.40689 14712 ft 370 kts 94°
2026-04-28 13:46 31.76575 117.43703 15438 ft 373 kts 95°
2026-04-28 13:46 31.76370 117.46715 16134 ft 376 kts 95°
2026-04-28 13:46 31.76156 117.49811 16819 ft 380 kts 95°
2026-04-28 13:46 31.75941 117.52919 17470 ft 383 kts 95°
2026-04-28 13:47 31.75726 117.56013 18097 ft 387 kts 95°
2026-04-28 13:47 31.75503 117.59203 18722 ft 390 kts 96°
2026-04-28 13:47 31.75281 117.62357 19330 ft 394 kts 96°
2026-04-28 13:47 31.75054 117.65591 19895 ft 398 kts 97°
2026-04-28 13:48 31.74825 117.68829 20469 ft 401 kts 97°
2026-04-28 13:48 31.74592 117.72106 21018 ft 405 kts 97°
2026-04-28 13:48 31.74356 117.75425 21535 ft 410 kts 97°
2026-04-28 13:48 31.74119 117.78732 22059 ft 413 kts 97°
2026-04-28 13:49 31.73876 117.82127 22542 ft 418 kts 97°
2026-04-28 13:49 31.73633 117.85499 23033 ft 421 kts 97°
2026-04-28 13:49 31.73384 117.88937 23497 ft 425 kts 98°
2026-04-28 13:49 31.73131 117.92419 23953 ft 429 kts 98°
2026-04-28 13:50 31.72878 117.95894 24387 ft 434 kts 98°
2026-04-28 13:50 31.72619 117.99437 24818 ft 438 kts 98°
2026-04-28 13:50 31.72357 118.03009 25257 ft 441 kts 98°
2026-04-28 13:50 31.72090 118.06631 25644 ft 446 kts 98°
2026-04-28 13:51 31.71823 118.10242 26052 ft 450 kts 98°
2026-04-28 13:51 31.71568 118.13914 26423 ft 454 kts 98°
2026-04-28 13:51 31.71310 118.17638 26824 ft 458 kts 98°
2026-04-28 13:51 31.71051 118.21375 27175 ft 462 kts 98°
2026-04-28 13:52 31.70788 118.25137 27531 ft 466 kts 98°
2026-04-28 13:52 31.70522 118.28946 27890 ft 470 kts 98°
2026-04-28 13:52 31.70255 118.32742 28221 ft 474 kts 98°
2026-04-28 13:52 31.69982 118.36595 28554 ft 477 kts 98°
2026-04-28 13:53 31.69704 118.40511 28876 ft 481 kts 98°
2026-04-28 13:53 31.69425 118.44430 29211 ft 485 kts 98°
2026-04-28 13:53 31.69143 118.48355 29524 ft 488 kts 98°
2026-04-28 13:53 31.68856 118.52345 29797 ft 493 kts 98°
2026-04-28 13:54 31.68569 118.56319 30133 ft 495 kts 97°
2026-04-28 13:54 31.68274 118.60388 30417 ft 499 kts 97°
2026-04-28 13:54 31.67978 118.64449 30770 ft 500 kts 97°
2026-04-28 13:54 31.67684 118.68482 31143 ft 501 kts 98°
2026-04-28 13:55 31.67385 118.72548 31456 ft 503 kts 98°
2026-04-28 13:55 31.67080 118.76661 31842 ft 503 kts 97°
2026-04-28 13:55 31.66779 118.80727 32175 ft 504 kts 97°
2026-04-28 13:55 31.66474 118.84817 32517 ft 505 kts 97°
2026-04-28 13:56 31.66050 118.88893 32852 ft 503 kts 104°
2026-04-28 13:56 31.65159 118.92831 33153 ft 499 kts 112°
2026-04-28 13:56 31.63829 118.96523 33309 ft 484 kts 121°
2026-04-28 13:56 31.62103 118.99854 33320 ft 484 kts 130°
2026-04-28 13:57 31.57404 119.05445 33318 ft 481 kts 148°
2026-04-28 13:57 31.51587 119.08997 33317 ft 468 kts 166°
2026-04-28 13:58 31.45306 119.10493 33311 ft 464 kts 174°
2026-04-28 13:58 31.39027 119.12009 33310 ft 465 kts 171°
2026-04-28 13:59 31.32702 119.13746 33310 ft 466 kts 171°
2026-04-28 13:59 31.26441 119.15538 33309 ft 465 kts 170°
2026-04-28 14:00 31.20184 119.17355 33309 ft 465 kts 170°
2026-04-28 14:00 31.13918 119.19181 33309 ft 466 kts 170°
2026-04-28 14:01 31.07666 119.21004 33309 ft 466 kts 170°
2026-04-28 14:01 31.01394 119.22832 33310 ft 466 kts 170°
2026-04-28 14:02 30.95143 119.24649 33309 ft 467 kts 169°
2026-04-28 14:02 30.88826 119.26485 33310 ft 467 kts 168°
2026-04-28 14:03 30.82568 119.28304 33311 ft 468 kts 168°
2026-04-28 14:03 30.76243 119.30140 33309 ft 468 kts 168°
2026-04-28 14:04 30.69986 119.31953 33306 ft 467 kts 168°
2026-04-28 14:04 30.63710 119.33768 33296 ft 468 kts 168°
2026-04-28 14:05 30.57406 119.35589 33287 ft 468 kts 168°
2026-04-28 14:05 30.51118 119.37402 33283 ft 468 kts 168°
2026-04-28 14:06 30.44797 119.39223 33283 ft 468 kts 168°
2026-04-28 14:06 30.38534 119.41026 33283 ft 468 kts 168°
2026-04-28 14:07 30.32217 119.42841 33283 ft 468 kts 168°
2026-04-28 14:07 30.25930 119.44644 33283 ft 468 kts 168°
2026-04-28 14:08 30.19644 119.46446 33283 ft 468 kts 168°
2026-04-28 14:08 30.13326 119.48254 33283 ft 468 kts 168°
2026-04-28 14:09 30.07059 119.50045 33283 ft 468 kts 168°
2026-04-28 14:09 30.00751 119.51846 33283 ft 468 kts 168°
2026-04-28 14:10 29.94460 119.53638 33283 ft 468 kts 168°
2026-04-28 14:10 29.88154 119.55434 33285 ft 468 kts 168°
2026-04-28 14:11 29.81878 119.57217 33285 ft 468 kts 168°
2026-04-28 14:11 29.75576 119.59006 33285 ft 468 kts 168°
2026-04-28 14:12 29.69262 119.60797 33285 ft 468 kts 168°
2026-04-28 14:12 29.62975 119.62578 33285 ft 468 kts 168°
2026-04-28 14:13 29.56684 119.64373 33285 ft 468 kts 166°
2026-04-28 14:13 29.50674 119.67252 33282 ft 471 kts 157°
2026-04-28 14:14 29.44813 119.70479 33280 ft 471 kts 156°
2026-04-28 14:14 29.38919 119.73737 33281 ft 471 kts 156°
2026-04-28 14:15 29.33041 119.76989 33281 ft 471 kts 156°
2026-04-28 14:15 29.27155 119.80244 33281 ft 471 kts 156°
2026-04-28 14:16 29.21248 119.83507 33280 ft 471 kts 156°
2026-04-28 14:16 29.15382 119.86742 33280 ft 471 kts 156°
2026-04-28 14:17 29.09502 119.89982 33283 ft 468 kts 156°
2026-04-28 14:17 29.03758 119.93140 33278 ft 456 kts 155°
2026-04-28 14:18 28.98002 119.96303 33282 ft 464 kts 154°
2026-04-28 14:18 28.92159 119.99514 33282 ft 469 kts 154°
2026-04-28 14:19 28.86296 120.02730 33282 ft 467 kts 154°
2026-04-28 14:19 28.80459 120.05926 33282 ft 467 kts 154°
2026-04-28 14:20 28.74616 120.09122 33282 ft 467 kts 154°
2026-04-28 14:20 28.68792 120.12303 33282 ft 467 kts 154°
2026-04-28 14:21 28.62951 120.15490 33282 ft 467 kts 154°
2026-04-28 14:21 28.57110 120.18673 33282 ft 467 kts 154°
2026-04-28 14:22 28.51273 120.21849 33282 ft 467 kts 154°
2026-04-28 14:22 28.45409 120.25037 33281 ft 467 kts 154°
2026-04-28 14:23 28.39560 120.28212 33278 ft 467 kts 154°
2026-04-28 14:23 28.33754 120.31360 33274 ft 467 kts 154°
2026-04-28 14:24 28.27877 120.34543 33268 ft 467 kts 154°
2026-04-28 14:24 28.22037 120.37701 33260 ft 467 kts 154°
2026-04-28 14:25 28.16200 120.40855 33255 ft 467 kts 154°
2026-04-28 14:25 28.10344 120.44015 33247 ft 467 kts 154°
2026-04-28 14:26 28.04447 120.47192 33248 ft 467 kts 154°
2026-04-28 14:26 27.98556 120.50363 33253 ft 467 kts 154°
2026-04-28 14:27 27.92643 120.53542 33215 ft 468 kts 154°
2026-04-28 14:27 27.86774 120.56693 33189 ft 468 kts 154°
2026-04-28 14:28 27.81079 120.60204 33183 ft 467 kts 142°
2026-04-28 14:28 27.76543 120.65440 33182 ft 466 kts 124°
2026-04-28 14:29 27.73755 120.71993 33178 ft 466 kts 106°
2026-04-28 14:29 27.72328 120.79155 33160 ft 466 kts 102°
2026-04-28 14:30 27.71030 120.86362 33149 ft 466 kts 101°
2026-04-28 14:30 27.69778 120.93494 33138 ft 466 kts 101°
2026-04-28 14:31 27.68530 121.00657 33141 ft 466 kts 101°
2026-04-28 14:31 27.67280 121.07840 33174 ft 467 kts 101°
2026-04-28 14:32 27.66021 121.15058 33206 ft 468 kts 101°
2026-04-28 14:32 27.64759 121.22275 33230 ft 469 kts 101°
2026-04-28 14:33 27.63500 121.29453 33230 ft 469 kts 101°
2026-04-28 14:33 27.62224 121.36701 33237 ft 469 kts 101°
2026-04-28 14:34 27.60317 121.47497 33255 ft 469 kts 101°
2026-04-28 14:35 27.59032 121.54745 33254 ft 469 kts 101°
2026-04-28 14:35 27.57781 121.61966 33254 ft 469 kts 100°
2026-04-28 14:36 27.56555 121.69165 33255 ft 468 kts 101°
2026-04-28 14:36 27.55330 121.76337 33255 ft 468 kts 101°
2026-04-28 14:37 27.54093 121.83556 33255 ft 468 kts 101°
2026-04-28 14:37 27.52859 121.90726 33255 ft 468 kts 101°
2026-04-28 14:38 27.51619 121.97919 33254 ft 469 kts 101°
2026-04-28 14:38 27.50371 122.05128 33240 ft 469 kts 101°
2026-04-28 14:39 27.49122 122.12322 33225 ft 469 kts 101°
2026-04-28 14:39 27.47861 122.19557 33210 ft 469 kts 101°
2026-04-28 14:40 27.46612 122.26705 33195 ft 469 kts 101°
2026-04-28 14:40 27.45345 122.33931 33180 ft 469 kts 101°
2026-04-28 14:41 27.44132 122.41092 33166 ft 469 kts 97°
2026-04-28 14:41 27.43918 122.48440 33159 ft 469 kts 90°
2026-04-28 14:42 27.43890 122.55791 33159 ft 469 kts 90°
2026-04-28 14:42 27.43871 122.63128 33158 ft 469 kts 90°
2026-04-28 14:43 27.43807 122.70485 33158 ft 469 kts 94°
2026-04-28 14:43 27.42373 122.77571 33156 ft 469 kts 112°
2026-04-28 14:44 27.39025 122.83817 33122 ft 470 kts 130°
2026-04-28 14:44 27.34083 122.88582 33074 ft 471 kts 149°
2026-04-28 14:45 27.28130 122.91561 33067 ft 470 kts 159°
2026-04-28 14:45 27.21998 122.94142 33065 ft 469 kts 159°
2026-04-28 14:46 27.15880 122.96528 33067 ft 468 kts 166°
2026-04-28 14:46 27.09448 122.97144 33073 ft 469 kts 184°
2026-04-28 14:47 27.03125 122.95445 33073 ft 471 kts 202°
2026-04-28 14:47 26.97506 122.91714 33068 ft 470 kts 214°
2026-04-28 14:48 26.92178 122.87537 33064 ft 465 kts 214°
2026-04-28 14:48 26.86946 122.83408 33066 ft 457 kts 214°
2026-04-28 14:49 26.81769 122.79312 33061 ft 447 kts 214°
2026-04-28 14:49 26.79280 122.77341 32857 ft 437 kts 214°
2026-04-28 14:49 26.76825 122.75399 32608 ft 435 kts 214°
2026-04-28 14:49 26.74350 122.73442 32360 ft 436 kts 214°
2026-04-28 14:50 26.71861 122.71475 32225 ft 437 kts 214°
2026-04-28 14:50 26.69385 122.69519 31763 ft 443 kts 214°
2026-04-28 14:50 26.66901 122.67555 31282 ft 441 kts 214°
2026-04-28 14:50 26.64391 122.65572 30772 ft 441 kts 214°
2026-04-28 14:51 26.61876 122.63587 30264 ft 443 kts 214°
2026-04-28 14:51 26.59366 122.61607 29756 ft 444 kts 214°
2026-04-28 14:51 26.56880 122.59646 29250 ft 442 kts 214°
2026-04-28 14:51 26.54380 122.57675 28739 ft 438 kts 214°
2026-04-28 14:52 26.51892 122.55715 28231 ft 434 kts 214°
2026-04-28 14:52 26.49433 122.53779 27731 ft 431 kts 214°
2026-04-28 14:52 26.47006 122.51868 27239 ft 429 kts 214°
2026-04-28 14:52 26.44566 122.49949 26744 ft 426 kts 213°
2026-04-28 14:53 26.42166 122.48063 26257 ft 423 kts 213°
2026-04-28 14:53 26.39768 122.46178 25772 ft 420 kts 213°
2026-04-28 14:53 26.37400 122.44318 25293 ft 418 kts 213°
2026-04-28 14:53 26.35036 122.42463 24815 ft 415 kts 213°
2026-04-28 14:54 26.32675 122.40611 24338 ft 413 kts 213°
2026-04-28 14:54 26.30338 122.38779 23866 ft 410 kts 213°
2026-04-28 14:54 26.28011 122.36955 23397 ft 408 kts 213°
2026-04-28 14:54 26.25709 122.35152 22933 ft 406 kts 213°
2026-04-28 14:55 26.23406 122.33349 22466 ft 403 kts 213°
2026-04-28 14:55 26.21101 122.31545 22000 ft 401 kts 212°
2026-04-28 14:55 26.18840 122.29778 21544 ft 399 kts 212°
2026-04-28 14:55 26.16587 122.28016 21092 ft 397 kts 212°
2026-04-28 14:56 26.14314 122.26239 20651 ft 394 kts 212°
2026-04-28 14:56 26.12084 122.24520 20560 ft 389 kts 212°
2026-04-28 14:56 26.09855 122.22813 20569 ft 394 kts 212°
2026-04-28 14:56 26.07581 122.21072 20400 ft 399 kts 212°
2026-04-28 14:57 26.05292 122.19319 19813 ft 399 kts 212°
2026-04-28 14:57 26.03778 122.18160 19424 ft 398 kts 212°
2026-04-28 14:57 26.00768 122.15855 18649 ft 395 kts 212°
2026-04-28 14:57 25.98509 122.14128 18066 ft 393 kts 212°
2026-04-28 14:58 25.96267 122.12413 17474 ft 387 kts 212°
2026-04-28 14:58 25.94054 122.10722 16921 ft 384 kts 212°
2026-04-28 14:58 25.91884 122.09064 16396 ft 382 kts 212°
2026-04-28 14:58 25.89686 122.07388 15888 ft 379 kts 212°
2026-04-28 14:59 25.87527 122.05739 15418 ft 375 kts 212°
2026-04-28 14:59 25.85402 122.04118 14945 ft 372 kts 212°
2026-04-28 14:59 25.83274 122.02496 14466 ft 369 kts 212°
2026-04-28 14:59 25.81184 122.00903 14014 ft 366 kts 212°
2026-04-28 15:00 25.79077 121.99298 13575 ft 364 kts 212°
2026-04-28 15:00 25.77010 121.97726 13154 ft 363 kts 212°
2026-04-28 15:00 25.74950 121.96158 12739 ft 361 kts 212°
2026-04-28 15:00 25.72883 121.94585 12337 ft 359 kts 212°
2026-04-28 15:01 25.70834 121.93011 11936 ft 358 kts 212°
2026-04-28 15:01 25.68788 121.91434 11535 ft 357 kts 212°
2026-04-28 15:01 25.66772 121.89880 11132 ft 354 kts 212°
2026-04-28 15:01 25.64757 121.88322 10726 ft 353 kts 214°
2026-04-28 15:02 25.62857 121.86594 10327 ft 352 kts 218°
2026-04-28 15:02 25.61013 121.84849 9936 ft 345 kts 218°
2026-04-28 15:02 25.59238 121.83175 9564 ft 329 kts 218°
2026-04-28 15:02 25.57626 121.81652 9256 ft 315 kts 218°
2026-04-28 15:03 25.55992 121.80108 8968 ft 301 kts 218°
2026-04-28 15:03 25.54415 121.78620 8723 ft 295 kts 218°
2026-04-28 15:03 25.52878 121.77169 8486 ft 291 kts 218°
2026-04-28 15:03 25.51356 121.75732 8256 ft 286 kts 218°
2026-04-28 15:04 25.49846 121.74308 8033 ft 281 kts 218°
2026-04-28 15:04 25.48588 121.73122 7854 ft 281 kts 218°
2026-04-28 15:04 25.47116 121.71735 7642 ft 279 kts 218°
2026-04-28 15:04 25.45624 121.70328 7425 ft 279 kts 218°
2026-04-28 15:05 25.44150 121.68938 7207 ft 278 kts 218°
2026-04-28 15:05 25.42690 121.67564 6989 ft 277 kts 218°
2026-04-28 15:05 25.41225 121.66183 6767 ft 276 kts 218°
2026-04-28 15:05 25.39773 121.64816 6544 ft 275 kts 218°
2026-04-28 15:06 25.38311 121.63440 6318 ft 274 kts 218°
2026-04-28 15:06 25.36869 121.62083 6093 ft 273 kts 218°
2026-04-28 15:06 25.35443 121.60742 5868 ft 272 kts 218°
2026-04-28 15:06 25.34002 121.59386 5640 ft 271 kts 218°
2026-04-28 15:07 25.32558 121.58029 5409 ft 270 kts 218°
2026-04-28 15:07 25.31144 121.56701 5182 ft 269 kts 218°
2026-04-28 15:07 25.29713 121.55356 4950 ft 268 kts 218°
2026-04-28 15:07 25.28307 121.54035 4722 ft 267 kts 218°
2026-04-28 15:08 25.26885 121.52700 4495 ft 265 kts 218°
2026-04-28 15:08 25.25497 121.51397 4287 ft 262 kts 218°
2026-04-28 15:08 25.24104 121.50091 4088 ft 262 kts 218°
2026-04-28 15:08 25.22734 121.48805 3881 ft 261 kts 218°
2026-04-28 15:09 25.21361 121.47518 3662 ft 260 kts 218°
2026-04-28 15:09 25.19988 121.46231 3443 ft 258 kts 218°
2026-04-28 15:09 25.18635 121.44961 3313 ft 249 kts 218°
2026-04-28 15:09 25.17768 121.44148 3304 ft 241 kts 218°
2026-04-28 15:10 25.16135 121.42618 3326 ft 220 kts 218°
2026-04-28 15:10 25.15044 121.41593 3344 ft 193 kts 218°
2026-04-28 15:10 25.14055 121.40668 3323 ft 187 kts 218°
2026-04-28 15:10 25.13067 121.39745 3359 ft 186 kts 218°
2026-04-28 15:11 25.12081 121.38824 3373 ft 186 kts 218°
2026-04-28 15:11 25.11085 121.37893 3377 ft 186 kts 218°
2026-04-28 15:11 25.10105 121.36980 3380 ft 185 kts 221°
2026-04-28 15:11 25.09125 121.36067 3369 ft 183 kts 220°
2026-04-28 15:12 25.08116 121.35214 3361 ft 181 kts 206°
2026-04-28 15:12 25.06978 121.35086 3362 ft 157 kts 160°
2026-04-28 15:12 25.06133 121.35845 3268 ft 161 kts 117°
2026-04-28 15:12 25.05997 121.37000 3074 ft 153 kts 72°
2026-04-28 15:13 25.06556 121.37970 2911 ft 150 kts 47°
2026-04-28 15:13 25.07230 121.38820 2716 ft 146 kts 56°
2026-04-28 15:13 25.07488 121.39883 2553 ft 147 kts 90°
2026-04-28 15:13 25.07443 121.41020 2370 ft 149 kts 91°
2026-04-28 15:14 25.07398 121.42174 2186 ft 150 kts 91°
2026-04-28 15:14 25.07353 121.43321 1981 ft 153 kts 92°
2026-04-28 15:14 25.07317 121.44506 1783 ft 154 kts 91°
2026-04-28 15:14 25.07296 121.45674 1604 ft 151 kts 92°
2026-04-28 15:15 25.07243 121.46832 1384 ft 150 kts 92°
2026-04-28 15:15 25.07204 121.47968 1189 ft 148 kts 92°
2026-04-28 15:15 25.07159 121.49107 938 ft 149 kts 92°
2026-04-28 15:15 25.07123 121.50249 759 ft 148 kts 92°
2026-04-28 15:16 25.07086 121.51363 610 ft 144 kts 91°
2026-04-28 15:16 25.07052 121.52453 402 ft 141 kts 92°
2026-04-28 15:16 25.07027 121.53526 216 ft 138 kts 91°
2026-04-28 15:16 25.06990 121.54562 75 ft 133 kts 93°
2026-04-28 15:17 25.06952 121.55402 71 ft 66 kts 92°
2026-04-28 15:17 25.06941 121.55660 70 ft 24 kts 92°
2026-04-28 15:17 25.06937 121.55838 71 ft 22 kts 92°
2026-04-28 15:17 25.06896 121.55988 70 ft 19 kts 116°
2026-04-28 15:18 25.06835 121.56107 70 ft 16 kts 123°
2026-04-28 15:18 25.06777 121.56137 70 ft 6 kts 211°
2026-04-28 15:18 25.06751 121.56100 70 ft 6 kts 250°
2026-04-28 15:18 25.06734 121.56038 70 ft 10 kts 256°
2026-04-28 15:19 25.06716 121.55952 70 ft 13 kts 258°
2026-04-28 15:19 25.06691 121.55845 70 ft 16 kts 254°
2026-04-28 15:19 25.06659 121.55713 70 ft 18 kts 257°
2026-04-28 15:19 25.06629 121.55583 70 ft 16 kts 254°
2026-04-28 15:20 25.06602 121.55466 70 ft 14 kts 257°
2026-04-28 15:20 25.06580 121.55361 70 ft 12 kts 265°
2026-04-28 15:20 25.06573 121.55293 70 ft 4 kts 238°
2026-04-28 15:20 25.06537 121.55277 70 ft 6 kts 187°
2026-04-28 15:21 25.06496 121.55276 70 ft 5 kts 178°
2026-04-28 15:21 25.06487 121.55276 70 ft 1 kts 179°
2026-04-28 15:22 25.06488 121.55276 70 ft 0 kts 179°